Regional Weather Roundup
Issued by NWS Sioux Falls, SD

Home | Current Version | Previous Version | Graphics & Text | Print | Product List | Glossary Off
Versions: 1 2 3 4 5 6 7 8 9 10 11 12 13 14 15 16 17 18 19 20 21 22 23 24 25 26 27 28 29 30 31 32 33 34 35 36 37 38 39 40 41 42 43 44 45 46 47 48 49 50

109
ASUS43 KFSD 252110
RWRFSD

WEATHER ROUNDUP FOR SE SOUTH DAKOTA/SW MINNESOTA/NW IOWA
NATIONAL WEATHER SERVICE SIOUX FALLS SD
400 PM CDT WED APR 25 2018

NOTE: "FAIR" INDICATES FEW OR NO CLOUDS BELOW 12,000 FEET WITH NO
SIGNIFICANT WEATHER AND OR OBSTRUCTIONS TO VISIBILITY.


SDZ038>040-050-052>070-252200-
SOUTHEAST SOUTH DAKOTA

CITY           SKY/WX    TMP DP  RH WIND       PRES   REMARKS
BROOKINGS      SUNNY     56  30  37 VRB5        N/A
CHAMBERLAIN    MOSUNNY   63  32  31 S14       30.06F
HURON          SUNNY     62  32  32 S12G17    30.06F
MADISON        FAIR      55  28  35 S5        30.10F
MITCHELL       SUNNY     61  34  36 SW10      30.10F
SIOUX FALLS    MOSUNNY   60  27  28 VRB6      30.10F
WINNER         FAIR      64  28  25 S12       30.07F
YANKTON        SUNNY     58  28  32 CALM      30.12F
$$

MNZ071-072-080-081-089-090-097-098-252200-
SOUTHWEST MINNESOTA

CITY           SKY/WX    TMP DP  RH WIND       PRES   REMARKS
FAIRMONT       SUNNY     54  33  45 NW7       30.11
JACKSON        SUNNY     54  32  43 CALM      30.12F
LUVERNE        SUNNY     57  25  28 CALM      30.11F
MARSHALL       SUNNY     56  29  35 VRB3      30.10F
MONTEVIDEO     SUNNY     61  30  31 SW6       30.09F
PIPESTONE      SUNNY    N/A N/A N/A SW6       30.10F
REDWOOD FALLS  SUNNY     55  31  39 W7        30.11F
TRACY          SUNNY     56  33  43 SW7       30.10F
WINDOM         SUNNY     55  28  35 SW5       30.11F
WORTHINGTON    SUNNY     55  28  35 CALM      30.11F
$$

IAZ001>003-012>014-020>022-031-032-NEZ013-014-SDZ071-252200-
NORTHWEST IOWA

CITY           SKY/WX    TMP DP  RH WIND       PRES   REMARKS
CHEROKEE       SUNNY     61  27  27 N7        30.10F
DENISON        SUNNY     61  27  27 N9        30.10F
ESTHERVILLE    SUNNY     56  35  45 NW8       30.10F
LE MARS        SUNNY     63  25  23 N6        30.10F
ORANGE CITY    SUNNY     61  30  31 CALM      30.10F
SHELDON        SUNNY     59  25  27 NW7       30.08F
SIOUX CITY     SUNNY     60  32  34 CALM      30.11F
SPENCER        SUNNY     59  26  28 MISG      30.10F
STORM LAKE       N/A     59  23  25 NE10      30.09F
$$

ABBREVIATIONS USED IN REMARKS
   TC - TEMPERATURE IN CELSIUS
  WCI - WIND CHILL INDEX
   HX - HEAT INDEX
  VSB - VISIBILITY





USA.gov is the U.S. government's official web portal to all federal, state and local government web resources and services.